Location: Be?chatów
(51.3665°N, 19.3745°E)
Time: 22:45:13
(UTC+00:00)

Cosmos 1346 Rocket - Pass Details

Date: 19 May 2025
Orbit: 485 x 500 km, 81.2° (Epoch: 16 June)

Event Time Altitude Azimuth Distance (km) Brightness Sun altitude
Rises 19:31:04 0° 348° (NNW) 2,589 7.4 -7.7°
Reaches altitude 10° 19:33:12 10° 350° (N) 1,699 6.3 -7.9°
Maximum altitude 19:36:56 79° 76° (ENE) 507 2.6 -8.3°
Drops below altitude 10° 19:40:36 10° 165° (SSE) 1,675 4.7 -8.7°
Enters shadow 19:40:45 - 165° (SSE) 1,734 4.8 -8.7°
